Location: Famechon
(49.7599°N, 2.0615°E)
Time: 13:10:03
(UTC+00:00)

SL-08 ROCKET BODY - Pass Details

Date: 03 February 2023
Orbit: 896 x 963 km, 82.9° (Epoch: 24 March)

Event Time Altitude Azimuth Distance (km) Brightness Sun altitude
Rises 17:29:08 0° 352° (N) 3,552 7.3 -6.8°
Reaches altitude 10° 17:31:40 10° 357° (N) 2,599 6.6 -7.2°
Maximum altitude 17:37:29 58° 76° (ENE) 1,041 4.4 -8.1°
Drops below altitude 10° 17:43:14 10° 156° (SSE) 2,564 6.6 -9.0°
Sets 17:45:42 0° 160° (SSE) 3,501 7.4 -9.3°
